This is the latest recevied weather packets stored in our database for station/object KB1ZFK. If no packets are shown the sender has not sent any weather packets the latest 10 day(s).
| Time | Temp. | Humidity | Pressure | Rain* | Wind** | Luminosity | Snow |
|---|---|---|---|---|---|---|---|
| 1777846406 | 8.89° C | 52% | 1007 hPa | 0 mm | - | 58 W/m² | - |
| 1777846101 | 8.89° C | 50% | 1006.9 hPa | 0 mm | - | 62 W/m² | - |
| 1777845798 | 8.89° C | 48% | 1006.8 hPa | 0 mm | - | 55 W/m² | - |
| 1777845495 | 8.89° C | 48% | 1006.8 hPa | 0 mm | - | 52 W/m² | - |
| 1777845192 | 9.44° C | 48% | 1006.6 hPa | 0 mm | - | 54 W/m² | - |
| 1777844890 | 9.44° C | 49% | 1006.6 hPa | 0 mm | - | 70 W/m² | - |
| 1777844587 | 9.44° C | 45% | 1006.8 hPa | 0 mm | - | 69 W/m² | - |
| 1777844284 | 9.44° C | 46% | 1006.6 hPa | 0 mm | - | 77 W/m² | - |
| 1777843981 | 9.44° C | 49% | 1006.5 hPa | 0 mm | - | 72 W/m² | - |
| 1777843678 | 9.44° C | 51% | 1006.6 hPa | 0 mm | - | 57 W/m² | - |
| 1777843376 | 9.44° C | 47% | 1006.5 hPa | 0 mm | - | 88 W/m² | - |
| 1777843073 | 9.44° C | 48% | 1006.4 hPa | 0 mm | - | 101 W/m² | - |
| 1777842769 | 9.44° C | 46% | 1006.4 hPa | 0 mm | - | 88 W/m² | - |
| 1777842464 | 9.44° C | 49% | 1006.2 hPa | 0 mm | - | 103 W/m² | - |
| 1777842163 | 9.44° C | 49% | 1006.2 hPa | 0 mm | - | 69 W/m² | - |
| 1777841863 | 9.44° C | 49% | 1006.2 hPa | 0 mm | - | 76 W/m² | - |
| 1777841559 | 9.44° C | 46% | 1006.2 hPa | 0 mm | - | 75 W/m² | - |
| 1777841256 | 9.44° C | 50% | 1006.2 hPa | 0 mm | - | 85 W/m² | - |
| 1777840954 | 9.44° C | 45% | 1006 hPa | 0 mm | - | 93 W/m² | - |
| 1777840651 | 10° C | 46% | 1005.9 hPa | 0 mm | - | 120 W/m² | - |
| 1777840348 | 10° C | 50% | 1006.1 hPa | 0 mm | - | 125 W/m² | - |
| 1777840045 | 9.44° C | 47% | 1005.8 hPa | 0 mm | - | 138 W/m² | - |
| 1777839743 | 9.44° C | 47% | 1005.9 hPa | 0 mm | - | 94 W/m² | - |
| 1777839441 | 9.44° C | 51% | 1005.9 hPa | 0 mm | - | 107 W/m² | - |
| 1777839138 | 10° C | 47% | 1006.1 hPa | 0 mm | - | 135 W/m² | - |
* Rain latest hour (hover to see other rain measurements)
** Current wind speed in m/s (hover to see current wind gust speed)